Ketchikan, AK

4:26 AM AKDT on August 15, 2018 (GMT -0800)
Ketchikan International

Weather History for PAKT - April, 2018

Change the Weather History Date:

Wednesday, April 25, 2018

  Actual Average Record
Temperature  
Mean Temperature 47 °F -  
Max Temperature 55 °F 53 °F 69 °F (1983)
Min Temperature 39 °F 38 °F 26 °F (2008)
Degree Days  
Heating Degree Days 18    
Moisture  
Dew Point 39 °F    
Average Humidity 78    
Maximum Humidity 97    
Minimum Humidity 51    
Precipitation  
Precipitation 0.00 in - - ()
Sea Level Pressure  
Sea Level Pressure 30.37 in    
Wind  
Wind Speed 8 mph (NW)    
Max Wind Speed 13 mph    
Max Gust Speed -    
Visibility 10 miles    
Events      
Averages and records for this station are not official NWS values.
T = Trace of Precipitation, MM = Missing Value Source: NWS Daily Summary

Daily Weather History Graph

Daily Weather History Graph

Search for Another Location

Airport or City:

Astronomy

Apr. 25, 2018 Rise Set
Actual Time 5:18 AM AKDT 8:12 PM AKDT
Civil Twilight 4:36 AM AKDT 8:54 PM AKDT
Nautical Twilight 3:41 AM AKDT 9:50 PM AKDT
Astronomical Twilight 2:28 AM AKDT 11:05 PM AKDT
Moon 2:51 PM AKDT (4/25) 4:18 AM AKDT (4/25)
Length of Visible Light 16h 17m
Length of Day
14h 53m
Waxing Gibbous, 81% of the Moon is Illuminated
Apr 25
Waxing Gibbous
Apr 29
Full
May 7
Last Quarter
May 15
New
May 21
First Quarter

Hourly Weather History & Observations

Time (AKDT) Temp. Windchill Dew Point Humidity Pressure Visibility Wind Dir Wind Speed Gust Speed Precip Events Conditions
12:04 AM 44.1 °F 39.5 °F 41.0 °F 89% 30.42 in 10.0 mi NNW 8.1 mph - N/A   Mostly Cloudy
12:34 AM 44.1 °F 40.1 °F 41.0 °F 89% 30.43 in 10.0 mi NNW 6.9 mph - N/A   Scattered Clouds
12:53 AM 43.0 °F 38.8 °F 39.9 °F 89% 30.43 in 10.0 mi NNW 6.9 mph - N/A   Clear
1:53 AM 41.0 °F 38.0 °F 39.0 °F 93% 30.42 in 10.0 mi NW 4.6 mph - N/A   Partly Cloudy
2:53 AM 41.0 °F 37.1 °F 37.9 °F 89% 30.41 in 10.0 mi WNW 5.8 mph - N/A   Clear
3:53 AM 39.9 °F 35.8 °F 39.0 °F 97% 30.41 in 10.0 mi NW 5.8 mph - N/A   Clear
4:53 AM 39.9 °F 35.1 °F 37.9 °F 93% 30.40 in 10.0 mi NW 6.9 mph - N/A   Clear
5:53 AM 39.0 °F 34.0 °F 37.9 °F 96% 30.41 in 10.0 mi NW 6.9 mph - N/A   Clear
6:15 AM 39.0 °F 34.8 °F 37.9 °F 96% 30.40 in 10.0 mi NW 5.8 mph - N/A   Clear
6:53 AM 41.0 °F 37.1 °F 39.0 °F 93% 30.41 in 10.0 mi NW 5.8 mph - N/A   Clear
7:53 AM 44.6 °F 39.7 °F 39.2 °F 81% 30.40 in 10.0 mi NW 9.2 mph - N/A   Clear
8:53 AM 46.0 °F 41.4 °F 41.0 °F 83% 30.40 in 10.0 mi NNW 9.2 mph - N/A   Clear
9:53 AM 48.2 °F - 39.2 °F 71% 30.41 in 10.0 mi NNW 9.2 mph - N/A   Partly Cloudy
10:53 AM 50.0 °F - 39.2 °F 66% 30.40 in 10.0 mi NW 9.2 mph - N/A   Clear
11:53 AM 51.8 °F - 37.4 °F 58% 30.40 in 10.0 mi NNW 12.7 mph - N/A   Clear
12:53 PM 53.6 °F - 37.4 °F 54% 30.38 in 10.0 mi NNW 11.5 mph - N/A   Clear
1:53 PM 53.6 °F - 39.2 °F 58% 30.37 in 10.0 mi NW 12.7 mph - N/A   Clear
2:53 PM 53.1 °F - 39.0 °F 59% 30.36 in 10.0 mi NW 11.5 mph - N/A   Clear
3:53 PM 55.0 °F - 37.0 °F 51% 30.35 in 10.0 mi NW 9.2 mph - N/A   Clear
4:53 PM 53.1 °F - 39.0 °F 59% 30.33 in 10.0 mi WNW 10.4 mph - N/A   Clear
5:53 PM 53.1 °F - 39.0 °F 59% 30.31 in 10.0 mi NW 10.4 mph - N/A   Clear
6:53 PM 51.1 °F - 39.0 °F 63% 30.28 in 10.0 mi NW 8.1 mph - N/A   Clear
7:53 PM 48.0 °F - 41.0 °F 77% 30.27 in 10.0 mi WNW 10.4 mph - N/A   Clear
8:53 PM 46.0 °F 41.4 °F 42.1 °F 86% 30.28 in 10.0 mi NW 9.2 mph - N/A   Clear
9:53 PM 46.0 °F 41.0 °F 42.1 °F 86% 30.27 in 10.0 mi NW 10.4 mph - N/A   Clear
10:53 PM 45.0 °F 40.1 °F 42.1 °F 90% 30.26 in 10.0 mi WNW 9.2 mph - N/A   Clear
11:53 PM 46.0 °F 41.4 °F 41.0 °F 83% 30.25 in 10.0 mi NW 9.2 mph - N/A   Clear